User: anonymous   Login
Location: Unspecified
(0.0000°N, 0.0000°E)
Time: 22:31:40
(UTC+00:00)
Language:

GONETS M 12 (M22) - Orbit

View from above orbital plane
View from above orbital plane
View from above satellite
View from above satellite

Ground track
Ground track

The orbit data is extracted from the following two-line orbital elements,

1 40553U 15020B   18110.45253532  .00000006  00000-0 -27879-4 0  9999
2 40553  82.4869  87.8350 0014946  11.0440 349.0954 12.42871469138618
Epoch (UTC): 20 April 2018 10:51:39
Eccentricity: 0.0014946
inclination: 82.4869°
perigee height: 1482 km
apogee height: 1506 km
right ascension of ascending node: 87.8350°
argument of perigee: 11.0440°
revolutions per day: 12.42871469
mean anomaly at epoch: 349.0954°
orbit number at epoch: 13861

The dashed part of the orbit path shows where the satellite is in the earth's shadow,  

DLR